Track LEMUR 2 ANGELA now! 10-day predictions LEMUR 2 ANGELA is classified as:
1 42752U 17019B 21060.12257004 .00002158 00000-0 78415-4 0 9993 2 42752 51.6405 16.0350 0009402 147.3394 212.8171 15.32923458208446